Regional Weather Roundup
Issued by NWS

Home | Current Version | Previous Version | Text Only | Print | Product List | Glossary On
Versions: 1 2 3 4 5 6 7 8 9 10 11 12 13 14 15 16 17 18 19 20 21 22 23 24 25 26 27 28 29 30 31 32 33 34 35 36 37 38 39 40 41 42 43 44 45 46 47 48 49 50
000
ASUS46 KSEW 291110
RWRWA

WASHINGTON REGIONAL WEATHER ROUNDUP
NATIONAL WEATHER SERVICE SEATTLE WA
400 AM PDT FRI APR 29 2016

NOTE:"FAIR" INDICATES FEW OR NO CLOUDS BELOW 12,000 FEET WITH NO
SIGNIFICANT WEATHER AND/OR OBSTRUCTIONS TO VISIBILITY.

WAZ505-507>509-291200-
SEATTLE, TACOMA, EVERETT, AND VICINITY

CITY           SKY/WX    TMP DP  RH WIND       PRES   REMARKS
EVERETT        LGT RAIN  47  44  90 NW3       30.09S FOG
BOEING FIELD   CLOUDY    51  45  79 VRB3      30.09S
RENTON         CLOUDY    52  43  71 S6        30.09S
SEATAC AIRPORT CLOUDY    50  42  74 SW7       30.09S
JBLM-MCCHORD   CLOUDY    47  45  91 S8        30.09S
PUYALLUP       CLOUDY    48  45  87 CALM      30.10R
BREMERTON      CLOUDY    46  45  93 CALM      30.10F
JBLM-FT LEWIS  CLOUDY    47  44  91 SE7       30.09S
TACOMA NARROWS CLOUDY    49  42  77 S7        30.09S
$$

WAZ001-503-506-510-514-515-291200-
NORTH INTERIOR

CITY           SKY/WX    TMP DP  RH WIND       PRES   REMARKS
BELLINGHAM     CLOUDY    51  43  74 S6        30.06R
FRIDAY HARBOR  CLOUDY    49  40  71 W3        30.07S
EASTSOUND      CLOUDY    50  43  76 S3        30.05S
PORT ANGELES   CLOUDY    48  39  71 W9        30.09F
EDIZ HOOK      FAIR      50  42  74 W14G20    30.09F
PORT TOWNSEND  CLOUDY    50  41  71 VRB6      30.09S
NAS WHIDBEY    CLOUDY    50  45  83 W16       30.11S
ARLINGTON      CLOUDY    48  41  76 CALM      30.11S
BURLINGTON     CLOUDY    50  43  76 S6        30.08S
$$

WAZ020-022-039-040-504-511-512-291200-
SOUTHWEST INTERIOR

CITY           SKY/WX    TMP DP  RH WIND       PRES   REMARKS
SHELTON        CLOUDY    48  41  76 SW12      30.06S
OLYMPIA        CLOUDY    47  41  80 SW3       30.09S
CHEHALIS       CLOUDY    48  46  93 CALM      30.11S
KELSO          CLOUDY    50  43  76 CALM      30.15R
VANCOUVER      CLOUDY    51  44  77 NW3       30.11S
SCAPPOOSE, OR  CLOUDY    51  43  74 NW5       30.11R
PORTLAND, OR   CLOUDY    52  44  74 N3        30.12R
$$

WAZ021-516-517-291200-
WASHINGTON COAST

CITY           SKY/WX    TMP DP  RH WIND       PRES   REMARKS
FORKS          CLOUDY    45  43  93 CALM      30.11F
HOQUIAM          N/A    N/A N/A N/A MISG      30.11S
ASTORIA, OR    CLOUDY    51  46  83 MISG      30.12S
$$

WAZ019-023-024-040-518-519-291200-
CASCADE MOUNTAINS AND COLUMBIA GORGE

CITY           SKY/WX    TMP DP  RH WIND       PRES   REMARKS
STAMPEDE PASS  FOG       37  35  92 VRB3      30.01S VSB 1/4
TROUTDALE, OR  CLOUDY    52  44  74 CALM      30.11S
THE DALLES, OR PTCLDY    53  41  63 NW10      30.01S
$$

WAZ026-027-041>044-520-521-291200-
EAST SLOPES

CITY           SKY/WX    TMP DP  RH WIND       PRES   REMARKS
OMAK           LGT RAIN  54  48  80 VRB6      29.94S
WENATCHEE      PTCLDY    52  38  58 N6        29.95R
ELLENSBURG     MOCLDY    49  39  68 NW16G23   29.95F
YAKIMA         PTCLDY    54  36  50 N5        29.95F
$$

WAZ028-034-035-291200-
COLUMBIA BASIN

CITY           SKY/WX    TMP DP  RH WIND       PRES   REMARKS
EPHRATA        MOCLDY    51  42  71 NW9       29.91F
MOSES LAKE     MOCLDY    50  47  89 N5        29.92F
PASCO          PTCLDY    53  41  63 SW15      29.96R
HERMISTON, OR  PTCLDY    51  38  60 SW13      29.97S
$$

WAZ036>038-291200-
NORTHEAST WASHINGTON

CITY           SKY/WX    TMP DP  RH WIND       PRES   REMARKS
SPOKANE GEIGER LGT RAIN  48  40  73 S5        29.95S
SPOKANE FELTS  CLOUDY    50  38  63 NE3       29.96S
FAIRCHILD AFB  CLOUDY    47  38  69 S6        29.95R
COEURDALENE,ID CLOUDY    46  36  66 CALM      29.93S
DEER PARK      CLOUDY    47  39  74 W6        29.96S
$$

WAZ029>033-291200-
SOUTHEAST WASHINGTON

CITY           SKY/WX    TMP DP  RH WIND       PRES   REMARKS
PULLMAN        LGT RAIN  45  40  82 CALM      29.97S
LEWISTON, ID   LGT RAIN  48  45  89 W3        29.95S
WALLA WALLA    RAIN      49  44  83 S16       29.97S
PENDLETON, OR  CLOUDY    51  37  58 SW17G23   29.97F
$$



USA.gov is the U.S. government's official web portal to all federal, state and local government web resources and services.